AEE112 LGAV-LIRQ

Flight info

Callsign AEE112
Flight time 1h 55m
Altitude 36000
Route KOR UL53 KRK UL995 TIGRA DCT DOLON DCT VIE DCT ETRIN DCT INKIM DCT DIPVO DCT GAVRA
Aircraft A320/M-SDE3FGHIRWY/LB1

Departure

Time 2026-04-24 08:19
Airport Athens Eleftherios Venizelos International Airport (LGAV)

Arrival

Time 2026-04-24 10:15
Airport Florence Airport, Peretola (LIRQ)
Time Latitude Longitude Altitude Speed Heading
2026-04-24 08:04 37.93794 23.95019 302 ft 0 kts 306°
2026-04-24 08:12 37.93793 23.95022 306 ft 2 kts 306°
2026-04-24 08:12 37.93783 23.95039 304 ft 2 kts 306°
2026-04-24 08:12 37.93774 23.95056 304 ft 2 kts 306°
2026-04-24 08:13 37.93764 23.95072 303 ft 2 kts 306°
2026-04-24 08:13 37.93755 23.95089 304 ft 2 kts 306°
2026-04-24 08:13 37.93747 23.95107 302 ft 2 kts 266°
2026-04-24 08:13 37.93749 23.95119 302 ft 0 kts 237°
2026-04-24 08:15 37.93739 23.95100 302 ft 2 kts 232°
2026-04-24 08:15 37.93735 23.95100 302 ft 1 kts 201°
2026-04-24 08:15 37.93713 23.95122 305 ft 6 kts 134°
2026-04-24 08:16 37.93653 23.95207 300 ft 19 kts 141°
2026-04-24 08:16 37.93535 23.95170 301 ft 19 kts 213°
2026-04-24 08:16 37.93418 23.95060 300 ft 24 kts 217°
2026-04-24 08:16 37.93274 23.94923 301 ft 28 kts 217°
2026-04-24 08:17 37.93103 23.94762 302 ft 33 kts 217°
2026-04-24 08:17 37.92913 23.94582 304 ft 36 kts 217°
2026-04-24 08:17 37.92715 23.94396 306 ft 35 kts 217°
2026-04-24 08:17 37.92528 23.94218 305 ft 29 kts 216°
2026-04-24 08:18 37.92413 23.94261 307 ft 22 kts 93°
2026-04-24 08:18 37.92450 23.94420 312 ft 19 kts 38°
2026-04-24 08:18 37.92624 23.94580 306 ft 54 kts 36°
2026-04-24 08:18 37.93074 23.95007 297 ft 106 kts 37°
2026-04-24 08:19 37.93787 23.95693 281 ft 149 kts 37°
2026-04-24 08:19 37.94623 23.96495 780 ft 147 kts 38°
2026-04-24 08:19 37.95449 23.97273 1359 ft 151 kts 35°
2026-04-24 08:19 37.96330 23.98075 1961 ft 159 kts 34°
2026-04-24 08:20 37.97248 23.98916 2574 ft 166 kts 36°
2026-04-24 08:20 37.98182 23.99801 3170 ft 171 kts 36°
2026-04-24 08:20 37.99167 24.00710 3742 ft 179 kts 36°
2026-04-24 08:20 38.00190 24.01671 4292 ft 187 kts 37°
2026-04-24 08:21 38.01254 24.02693 4840 ft 195 kts 38°
2026-04-24 08:21 38.02345 24.03763 5440 ft 201 kts 38°
2026-04-24 08:21 38.03466 24.04880 6024 ft 209 kts 39°
2026-04-24 08:21 38.04620 24.06041 6610 ft 215 kts 36°
2026-04-24 08:22 38.06050 24.06580 7181 ft 223 kts 356°
2026-04-24 08:22 38.07464 24.05756 7779 ft 234 kts 316°
2026-04-24 08:22 38.08217 24.03865 8385 ft 253 kts 281°
2026-04-24 08:22 38.08136 24.01616 9060 ft 268 kts 260°
2026-04-24 08:23 38.07785 23.99216 9694 ft 285 kts 262°
2026-04-24 08:23 38.07434 23.96698 10388 ft 296 kts 262°
2026-04-24 08:23 38.07073 23.94062 10898 ft 311 kts 261°
2026-04-24 08:23 38.06691 23.91273 11409 ft 330 kts 262°
2026-04-24 08:24 38.06293 23.88331 11871 ft 347 kts 262°
2026-04-24 08:24 38.05879 23.85255 12446 ft 358 kts 261°
2026-04-24 08:24 38.05452 23.82121 13251 ft 361 kts 262°
2026-04-24 08:24 38.05021 23.78965 14067 ft 365 kts 262°
2026-04-24 08:25 38.04582 23.75766 14780 ft 371 kts 262°
2026-04-24 08:25 38.04136 23.72502 15330 ft 381 kts 261°
2026-04-24 08:25 38.03676 23.69144 15890 ft 390 kts 261°
2026-04-24 08:25 38.03206 23.65737 16526 ft 396 kts 261°
2026-04-24 08:26 38.02726 23.62264 17128 ft 402 kts 261°
2026-04-24 08:26 38.02244 23.58739 17751 ft 408 kts 261°
2026-04-24 08:26 38.01756 23.55192 18509 ft 409 kts 261°
2026-04-24 08:26 38.01261 23.51630 19108 ft 412 kts 261°
2026-04-24 08:27 38.00769 23.48084 19631 ft 416 kts 261°
2026-04-24 08:27 38.00258 23.44402 20172 ft 421 kts 261°
2026-04-24 08:27 37.99753 23.40776 20696 ft 427 kts 261°
2026-04-24 08:27 37.99225 23.37043 21113 ft 434 kts 261°
2026-04-24 08:28 37.98690 23.33250 21606 ft 440 kts 261°
2026-04-24 08:28 37.98151 23.29421 22133 ft 443 kts 261°
2026-04-24 08:28 37.97606 23.25553 22645 ft 449 kts 261°
2026-04-24 08:28 37.97053 23.21633 23176 ft 454 kts 261°
2026-04-24 08:29 37.96493 23.17675 23703 ft 458 kts 261°
2026-04-24 08:29 37.95926 23.13681 24155 ft 462 kts 261°
2026-04-24 08:29 37.95352 23.09665 24620 ft 464 kts 261°
2026-04-24 08:29 37.94769 23.05622 25036 ft 469 kts 261°
2026-04-24 08:30 37.94205 23.01540 25489 ft 471 kts 264°
2026-04-24 08:30 37.94047 22.98796 25822 ft 471 kts 272°
2026-04-24 08:30 37.94322 22.94678 26303 ft 468 kts 284°
2026-04-24 08:30 37.95205 22.90721 26783 ft 466 kts 295°
2026-04-24 08:31 37.96648 22.87064 27210 ft 462 kts 306°
2026-04-24 08:31 37.98469 22.83705 27549 ft 463 kts 309°
2026-04-24 08:31 38.00317 22.80362 27853 ft 464 kts 309°
2026-04-24 08:31 38.02176 22.77002 28110 ft 466 kts 309°
2026-04-24 08:32 38.04038 22.73634 28373 ft 467 kts 309°
2026-04-24 08:32 38.05903 22.70249 28642 ft 467 kts 309°
2026-04-24 08:32 38.07754 22.66866 28963 ft 466 kts 309°
2026-04-24 08:32 38.09597 22.63483 29329 ft 466 kts 309°
2026-04-24 08:33 38.11445 22.60101 29739 ft 465 kts 309°
2026-04-24 08:33 38.13291 22.56727 30162 ft 464 kts 309°
2026-04-24 08:33 38.15128 22.53366 30560 ft 463 kts 309°
2026-04-24 08:33 38.16957 22.50014 30970 ft 461 kts 308°
2026-04-24 08:34 38.18784 22.46668 31373 ft 460 kts 308°
2026-04-24 08:34 38.20603 22.43331 31768 ft 459 kts 308°
2026-04-24 08:34 38.22421 22.39984 32210 ft 458 kts 308°
2026-04-24 08:34 38.24203 22.36700 32647 ft 456 kts 308°
2026-04-24 08:35 38.26006 22.33384 33065 ft 454 kts 308°
2026-04-24 08:35 38.27801 22.30073 33448 ft 454 kts 308°
2026-04-24 08:35 38.29589 22.26762 33849 ft 453 kts 308°
2026-04-24 08:35 38.31370 22.23455 34201 ft 452 kts 307°
2026-04-24 08:36 38.33146 22.20157 34536 ft 450 kts 307°
2026-04-24 08:36 38.34919 22.16866 34885 ft 449 kts 307°
2026-04-24 08:36 38.36690 22.13595 35211 ft 448 kts 307°
2026-04-24 08:36 38.38463 22.10310 35550 ft 446 kts 307°
2026-04-24 08:37 38.40197 22.07093 35865 ft 445 kts 307°
2026-04-24 08:37 38.41951 22.03844 36048 ft 446 kts 307°
2026-04-24 08:37 38.43699 22.00601 36059 ft 443 kts 307°
2026-04-24 08:38 38.47173 21.94120 36060 ft 442 kts 306°
2026-04-24 08:38 38.50628 21.87632 36054 ft 443 kts 306°
2026-04-24 08:39 38.54099 21.81141 36046 ft 442 kts 307°
2026-04-24 08:39 38.57570 21.74645 36050 ft 441 kts 307°
2026-04-24 08:40 38.61025 21.68164 36036 ft 441 kts 307°
2026-04-24 08:40 38.64474 21.61665 36051 ft 441 kts 307°
2026-04-24 08:41 38.67913 21.55161 36034 ft 441 kts 307°
2026-04-24 08:41 38.71365 21.48639 36032 ft 443 kts 307°
2026-04-24 08:42 38.74798 21.42121 36033 ft 441 kts 307°
2026-04-24 08:42 38.78215 21.35650 36022 ft 441 kts 307°
2026-04-24 08:43 38.81655 21.29113 36045 ft 442 kts 306°
2026-04-24 08:43 38.85073 21.22574 36041 ft 441 kts 306°
2026-04-24 08:44 38.88490 21.16029 36028 ft 442 kts 306°
2026-04-24 08:44 38.91913 21.09485 36054 ft 440 kts 307°
2026-04-24 08:45 38.95319 21.02962 36050 ft 439 kts 307°
2026-04-24 08:45 38.98720 20.96427 36060 ft 438 kts 307°
2026-04-24 08:46 39.02081 20.89938 36058 ft 436 kts 307°
2026-04-24 08:46 39.05409 20.83492 36049 ft 436 kts 307°
2026-04-24 08:47 39.08780 20.76986 36045 ft 436 kts 307°
2026-04-24 08:47 39.12130 20.70492 36043 ft 436 kts 307°
2026-04-24 08:48 39.15485 20.63987 36044 ft 435 kts 307°
2026-04-24 08:48 39.18866 20.57414 36061 ft 447 kts 306°
2026-04-24 08:49 39.22332 20.50662 36056 ft 451 kts 306°
2026-04-24 08:49 39.25789 20.43898 36046 ft 452 kts 306°
2026-04-24 08:50 39.29240 20.37113 36060 ft 453 kts 306°
2026-04-24 08:50 39.32700 20.30317 36050 ft 452 kts 306°
2026-04-24 08:51 39.36167 20.23495 36053 ft 456 kts 306°
2026-04-24 08:51 39.39642 20.16657 36054 ft 452 kts 306°
2026-04-24 08:52 39.43092 20.09853 36009 ft 453 kts 307°
2026-04-24 08:52 39.46648 20.03101 36026 ft 454 kts 309°
2026-04-24 08:53 39.50445 19.96607 36025 ft 452 kts 311°
2026-04-24 08:53 39.54293 19.90177 36034 ft 452 kts 311°
2026-04-24 08:54 39.58072 19.83734 36047 ft 452 kts 310°
2026-04-24 08:54 39.61815 19.77192 36024 ft 451 kts 310°
2026-04-24 08:55 39.65548 19.70646 36023 ft 452 kts 310°
2026-04-24 08:55 39.69305 19.64097 36059 ft 452 kts 310°
2026-04-24 08:56 39.73049 19.57556 36065 ft 451 kts 310°
2026-04-24 08:56 39.76790 19.51024 36057 ft 451 kts 310°
2026-04-24 08:57 39.80530 19.44460 36058 ft 452 kts 310°
2026-04-24 08:57 39.84258 19.37902 36077 ft 450 kts 310°
2026-04-24 08:58 39.87984 19.31331 36079 ft 452 kts 310°
2026-04-24 08:58 39.91682 19.24809 36089 ft 450 kts 310°
2026-04-24 08:59 39.95403 19.18239 36084 ft 452 kts 310°
2026-04-24 08:59 39.99114 19.11652 36082 ft 450 kts 310°
2026-04-24 09:00 40.02825 19.05074 36078 ft 451 kts 310°
2026-04-24 09:00 40.06548 18.98461 36100 ft 451 kts 310°
2026-04-24 09:01 40.10388 18.92012 36104 ft 449 kts 312°
2026-04-24 09:01 40.14303 18.85661 36103 ft 449 kts 312°
2026-04-24 09:02 40.18216 18.79261 36108 ft 450 kts 312°
2026-04-24 09:02 40.22079 18.72843 36100 ft 448 kts 311°
2026-04-24 09:03 40.25932 18.66394 36095 ft 450 kts 311°
2026-04-24 09:03 40.29790 18.59930 36120 ft 451 kts 311°
2026-04-24 09:04 40.33621 18.53507 36114 ft 448 kts 311°
2026-04-24 09:04 40.37464 18.47067 36091 ft 450 kts 311°
2026-04-24 09:05 40.41322 18.40599 36085 ft 450 kts 311°
2026-04-24 09:05 40.45178 18.34107 36108 ft 450 kts 311°
2026-04-24 09:06 40.49013 18.27622 36105 ft 449 kts 311°
2026-04-24 09:06 40.52845 18.21148 36105 ft 450 kts 311°
2026-04-24 09:07 40.56677 18.14638 36100 ft 450 kts 311°
2026-04-24 09:07 40.62413 18.04908 36110 ft 449 kts 311°
2026-04-24 09:08 40.66241 17.98384 36102 ft 451 kts 311°
2026-04-24 09:08 40.70070 17.91849 36110 ft 450 kts 311°
2026-04-24 09:09 40.73900 17.85322 36109 ft 450 kts 311°
2026-04-24 09:09 40.77725 17.78768 36132 ft 450 kts 311°
2026-04-24 09:10 40.81512 17.72237 36118 ft 450 kts 310°
2026-04-24 09:10 40.85311 17.65683 36124 ft 450 kts 311°
2026-04-24 09:11 40.89120 17.59103 36144 ft 449 kts 311°
2026-04-24 09:11 40.93154 17.52841 36134 ft 447 kts 316°
2026-04-24 09:12 40.97401 17.46806 36137 ft 446 kts 316°
2026-04-24 09:12 41.01622 17.40744 36136 ft 448 kts 315°
2026-04-24 09:13 41.05775 17.34602 36118 ft 448 kts 315°
2026-04-24 09:13 41.09910 17.28422 36132 ft 448 kts 315°
2026-04-24 09:14 41.14045 17.22247 36144 ft 447 kts 315°
2026-04-24 09:14 41.18160 17.16116 36149 ft 447 kts 315°
2026-04-24 09:15 41.22294 17.09942 36153 ft 448 kts 315°
2026-04-24 09:15 41.26433 17.03748 36144 ft 447 kts 315°
2026-04-24 09:16 41.30558 16.97552 36144 ft 447 kts 315°
2026-04-24 09:16 41.33990 16.92389 36143 ft 448 kts 315°
2026-04-24 09:17 41.38121 16.86162 36151 ft 447 kts 315°
2026-04-24 09:17 41.42234 16.79956 36143 ft 446 kts 315°
2026-04-24 09:18 41.46351 16.73739 36148 ft 448 kts 315°
2026-04-24 09:18 41.50464 16.67504 36132 ft 447 kts 315°
2026-04-24 09:19 41.54580 16.61264 36142 ft 449 kts 315°
2026-04-24 09:19 41.58676 16.55039 36152 ft 448 kts 315°
2026-04-24 09:20 41.63463 16.47715 36152 ft 448 kts 314°
2026-04-24 09:20 41.66869 16.42496 36147 ft 448 kts 314°
2026-04-24 09:21 41.70974 16.36207 36146 ft 448 kts 314°
2026-04-24 09:21 41.75078 16.29926 36127 ft 449 kts 315°
2026-04-24 09:22 41.79191 16.23606 36158 ft 450 kts 314°
2026-04-24 09:22 41.83286 16.17280 36164 ft 448 kts 314°
2026-04-24 09:23 41.87374 16.10960 36152 ft 449 kts 314°
2026-04-24 09:23 41.91441 16.04595 36146 ft 450 kts 310°
2026-04-24 09:24 41.95110 15.97750 36141 ft 452 kts 309°
2026-04-24 09:24 41.98747 15.90895 36176 ft 453 kts 309°
2026-04-24 09:25 42.02395 15.83968 36199 ft 452 kts 309°
2026-04-24 09:25 42.06031 15.77092 36169 ft 452 kts 309°
2026-04-24 09:26 42.09699 15.70173 36181 ft 454 kts 309°
2026-04-24 09:26 42.13351 15.63246 36170 ft 452 kts 309°
2026-04-24 09:27 42.17000 15.56305 36172 ft 455 kts 309°
2026-04-24 09:27 42.20633 15.49352 36175 ft 453 kts 309°
2026-04-24 09:28 42.24239 15.42445 36156 ft 454 kts 309°
2026-04-24 09:28 42.27869 15.35467 36166 ft 454 kts 309°
2026-04-24 09:29 42.31490 15.28509 36143 ft 452 kts 309°
2026-04-24 09:29 42.35123 15.21527 36148 ft 457 kts 309°
2026-04-24 09:30 42.39377 15.13304 36184 ft 454 kts 309°
2026-04-24 09:30 42.42381 15.07486 36162 ft 453 kts 309°
2026-04-24 09:31 42.46002 15.00473 36159 ft 456 kts 309°
2026-04-24 09:31 42.49602 14.93484 36174 ft 455 kts 309°
2026-04-24 09:32 42.53213 14.86427 36145 ft 457 kts 309°
2026-04-24 09:32 42.56832 14.79334 36176 ft 456 kts 309°
2026-04-24 09:33 42.60443 14.72243 36172 ft 456 kts 306°
2026-04-24 09:33 42.63619 14.64745 36162 ft 461 kts 303°
2026-04-24 09:34 42.66778 14.57166 36186 ft 460 kts 303°
2026-04-24 09:34 42.69907 14.49641 36157 ft 459 kts 303°
2026-04-24 09:35 42.73050 14.42070 36161 ft 461 kts 303°
2026-04-24 09:35 42.76193 14.34482 36187 ft 458 kts 303°
2026-04-24 09:36 42.79299 14.26974 36163 ft 459 kts 303°
2026-04-24 09:36 42.82432 14.19367 36157 ft 460 kts 303°
2026-04-24 09:37 42.85578 14.11737 36170 ft 460 kts 303°
2026-04-24 09:37 42.88741 14.04131 36173 ft 460 kts 304°
2026-04-24 09:38 42.91916 13.96526 36183 ft 462 kts 303°
2026-04-24 09:38 42.95073 13.88911 36183 ft 460 kts 303°
2026-04-24 09:39 42.98232 13.81277 36161 ft 462 kts 303°
2026-04-24 09:39 43.01369 13.73662 36157 ft 464 kts 303°
2026-04-24 09:40 43.04529 13.65984 36184 ft 463 kts 303°
2026-04-24 09:40 43.07680 13.58316 36169 ft 462 kts 303°
2026-04-24 09:41 43.10816 13.50635 36158 ft 463 kts 303°
2026-04-24 09:41 43.13961 13.42930 36142 ft 464 kts 303°
2026-04-24 09:42 43.17106 13.35200 36172 ft 465 kts 303°
2026-04-24 09:42 43.20244 13.27483 36166 ft 463 kts 303°
2026-04-24 09:43 43.23360 13.19760 36134 ft 465 kts 303°
2026-04-24 09:43 43.26480 13.11978 36157 ft 464 kts 303°
2026-04-24 09:44 43.29607 13.04212 36142 ft 465 kts 303°
2026-04-24 09:44 43.32743 12.96433 36163 ft 466 kts 303°
2026-04-24 09:45 43.35861 12.88636 36169 ft 464 kts 303°
2026-04-24 09:45 43.38945 12.80912 36151 ft 466 kts 303°
2026-04-24 09:46 43.42062 12.73095 36132 ft 466 kts 302°
2026-04-24 09:46 43.43611 12.69198 35409 ft 464 kts 303°
2026-04-24 09:46 43.45170 12.65267 34254 ft 468 kts 303°
2026-04-24 09:47 43.46724 12.61338 33062 ft 465 kts 302°
2026-04-24 09:47 43.48251 12.57465 32153 ft 455 kts 302°
2026-04-24 09:47 43.49741 12.53666 31279 ft 447 kts 302°
2026-04-24 09:47 43.51207 12.49923 30417 ft 440 kts 302°
2026-04-24 09:48 43.52652 12.46254 29472 ft 432 kts 302°
2026-04-24 09:48 43.54085 12.42630 28489 ft 427 kts 302°
2026-04-24 09:48 43.55494 12.39061 27536 ft 421 kts 302°
2026-04-24 09:48 43.56867 12.35577 26773 ft 413 kts 302°
2026-04-24 09:49 43.58208 12.32156 26295 ft 399 kts 302°
2026-04-24 09:49 43.59504 12.28832 25787 ft 387 kts 302°
2026-04-24 09:49 43.60761 12.25599 25293 ft 377 kts 302°
2026-04-24 09:49 43.61989 12.22442 24807 ft 369 kts 302°
2026-04-24 09:50 43.63195 12.19350 24328 ft 362 kts 302°
2026-04-24 09:50 43.64381 12.16323 23856 ft 356 kts 302°
2026-04-24 09:50 43.65553 12.13345 23323 ft 349 kts 302°
2026-04-24 09:50 43.66703 12.10427 22850 ft 343 kts 302°
2026-04-24 09:51 43.67844 12.07526 22386 ft 345 kts 302°
2026-04-24 09:51 43.68979 12.04645 21916 ft 346 kts 301°
2026-04-24 09:51 43.70120 12.01730 21423 ft 345 kts 301°
2026-04-24 09:51 43.71263 11.98809 20953 ft 345 kts 301°
2026-04-24 09:52 43.72403 11.95886 20467 ft 345 kts 301°
2026-04-24 09:52 43.73542 11.92960 19973 ft 346 kts 301°
2026-04-24 09:52 43.74682 11.90019 19473 ft 347 kts 301°
2026-04-24 09:52 43.75822 11.87073 18976 ft 348 kts 301°
2026-04-24 09:53 43.76866 11.84047 18467 ft 350 kts 291°
2026-04-24 09:53 43.77413 11.80752 17911 ft 353 kts 277°
2026-04-24 09:53 43.77410 11.77374 17476 ft 350 kts 268°
2026-04-24 09:53 43.77274 11.74020 16998 ft 347 kts 268°
2026-04-24 09:54 43.77141 11.70701 16607 ft 344 kts 268°
2026-04-24 09:54 43.77006 11.67407 16189 ft 340 kts 268°
2026-04-24 09:54 43.76869 11.64158 15752 ft 338 kts 268°
2026-04-24 09:54 43.76738 11.60951 15520 ft 330 kts 268°
2026-04-24 09:55 43.76615 11.57829 15321 ft 329 kts 268°
2026-04-24 09:55 43.76490 11.54670 15078 ft 327 kts 268°
2026-04-24 09:55 43.76359 11.51537 14832 ft 325 kts 268°
2026-04-24 09:55 43.76227 11.48433 14603 ft 322 kts 269°
2026-04-24 09:56 43.76095 11.45371 14322 ft 317 kts 269°
2026-04-24 09:56 43.75966 11.42342 13998 ft 314 kts 269°
2026-04-24 09:56 43.75837 11.39336 13660 ft 311 kts 269°
2026-04-24 09:56 43.75693 11.36370 13339 ft 308 kts 265°
2026-04-24 09:57 43.75193 11.33507 13032 ft 306 kts 250°
2026-04-24 09:57 43.74210 11.30890 12734 ft 306 kts 236°
2026-04-24 09:57 43.72856 11.28641 12412 ft 303 kts 229°
2026-04-24 09:57 43.71458 11.26478 12115 ft 300 kts 229°
2026-04-24 09:58 43.70075 11.24338 11845 ft 297 kts 230°
2026-04-24 09:58 43.68699 11.22216 11553 ft 295 kts 230°
2026-04-24 09:58 43.67337 11.20119 11332 ft 290 kts 230°
2026-04-24 09:58 43.66017 11.18084 11214 ft 278 kts 230°
2026-04-24 09:59 43.64760 11.16148 11100 ft 264 kts 230°
2026-04-24 09:59 43.63538 11.14267 10896 ft 263 kts 230°
2026-04-24 09:59 43.62317 11.12409 10617 ft 259 kts 230°
2026-04-24 09:59 43.61115 11.10579 10366 ft 255 kts 230°
2026-04-24 10:00 43.59935 11.08785 10142 ft 250 kts 230°
2026-04-24 10:00 43.58776 11.07024 9874 ft 247 kts 230°
2026-04-24 10:00 43.57640 11.05287 9609 ft 239 kts 231°
2026-04-24 10:00 43.56566 11.03632 9414 ft 230 kts 231°
2026-04-24 10:01 43.55532 11.02046 9221 ft 216 kts 231°
2026-04-24 10:01 43.54538 11.00528 8979 ft 209 kts 231°
2026-04-24 10:01 43.53585 10.99065 8775 ft 199 kts 231°
2026-04-24 10:01 43.52694 10.97688 8570 ft 188 kts 231°
2026-04-24 10:02 43.51834 10.96365 8376 ft 182 kts 231°
2026-04-24 10:02 43.51002 10.95090 8187 ft 176 kts 231°
2026-04-24 10:02 43.50201 10.93858 8005 ft 169 kts 231°
2026-04-24 10:02 43.49443 10.92649 7865 ft 163 kts 238°
2026-04-24 10:03 43.49005 10.91266 7683 ft 154 kts 262°
2026-04-24 10:03 43.48956 10.89812 7514 ft 149 kts 282°
2026-04-24 10:03 43.49265 10.88446 7348 ft 150 kts 301°
2026-04-24 10:03 43.49898 10.87314 7188 ft 152 kts 319°
2026-04-24 10:04 43.50700 10.86338 7031 ft 153 kts 319°
2026-04-24 10:04 43.51224 10.85693 6913 ft 152 kts 319°
2026-04-24 10:04 43.52269 10.84403 6682 ft 152 kts 318°
2026-04-24 10:04 43.53055 10.83437 6516 ft 152 kts 318°
2026-04-24 10:05 43.53907 10.82594 6360 ft 152 kts 336°
2026-04-24 10:05 43.54925 10.82287 6188 ft 150 kts 358°
2026-04-24 10:05 43.55952 10.82559 5957 ft 153 kts 21°
2026-04-24 10:05 43.56562 10.83066 5809 ft 151 kts 39°
2026-04-24 10:06 43.57293 10.84101 5630 ft 152 kts 44°
2026-04-24 10:06 43.58729 10.86254 5274 ft 153 kts 46°
2026-04-24 10:06 43.59439 10.87337 5149 ft 152 kts 46°
2026-04-24 10:07 43.60156 10.88431 5072 ft 154 kts 46°
2026-04-24 10:07 43.60862 10.89510 4999 ft 154 kts 46°
2026-04-24 10:07 43.61588 10.90622 4857 ft 154 kts 46°
2026-04-24 10:07 43.62293 10.91702 4700 ft 154 kts 46°
2026-04-24 10:08 43.63007 10.92794 4564 ft 152 kts 46°
2026-04-24 10:08 43.63719 10.93886 4436 ft 151 kts 46°
2026-04-24 10:08 43.64426 10.94971 4291 ft 154 kts 46°
2026-04-24 10:08 43.65136 10.96058 4141 ft 152 kts 46°
2026-04-24 10:09 43.65846 10.97146 4000 ft 152 kts 46°
2026-04-24 10:09 43.66555 10.98237 3877 ft 152 kts 46°
2026-04-24 10:09 43.67265 10.99327 3731 ft 152 kts 47°
2026-04-24 10:09 43.67970 11.00410 3671 ft 152 kts 47°
2026-04-24 10:10 43.68677 11.01495 3548 ft 153 kts 46°
2026-04-24 10:10 43.69381 11.02578 3398 ft 152 kts 46°
2026-04-24 10:10 43.70090 11.03672 3174 ft 154 kts 46°
2026-04-24 10:10 43.70804 11.04768 2952 ft 153 kts 46°
2026-04-24 10:11 43.71509 11.05854 2777 ft 153 kts 47°
2026-04-24 10:11 43.72211 11.06931 2555 ft 149 kts 47°
2026-04-24 10:11 43.72907 11.08005 2363 ft 152 kts 47°
2026-04-24 10:11 43.73599 11.09069 2168 ft 148 kts 47°
2026-04-24 10:12 43.74294 11.10139 1972 ft 146 kts 47°
2026-04-24 10:12 43.74980 11.11204 1762 ft 148 kts 47°
2026-04-24 10:12 43.75662 11.12261 1545 ft 146 kts 49°
2026-04-24 10:12 43.76344 11.13307 1379 ft 147 kts 48°
2026-04-24 10:13 43.77005 11.14333 1186 ft 143 kts 48°
2026-04-24 10:13 43.77659 11.15347 998 ft 142 kts 48°
2026-04-24 10:13 43.78325 11.16353 851 ft 144 kts 48°
2026-04-24 10:13 43.78972 11.17364 636 ft 138 kts 47°
2026-04-24 10:14 43.79594 11.18362 425 ft 136 kts 47°
2026-04-24 10:14 43.80225 11.19336 261 ft 137 kts 47°
2026-04-24 10:14 43.80869 11.20305 138 ft 131 kts 46°
2026-04-24 10:14 43.81363 11.21063 148 ft 58 kts 47°
2026-04-24 10:15 43.81484 11.21291 149 ft 15 kts 102°
2026-04-24 10:15 43.81437 11.21360 152 ft 8 kts 150°
2026-04-24 10:15 43.81372 11.21369 152 ft 13 kts 200°
2026-04-24 10:15 43.81287 11.21268 151 ft 20 kts 233°
2026-04-24 10:16 43.81264 11.21053 149 ft 25 kts 273°
2026-04-24 10:16 43.81212 11.20820 143 ft 28 kts 233°
2026-04-24 10:16 43.81075 11.20619 138 ft 29 kts 227°
2026-04-24 10:16 43.80930 11.20394 136 ft 33 kts 228°
2026-04-24 10:17 43.80774 11.20154 136 ft 33 kts 228°
2026-04-24 10:17 43.80616 11.20012 133 ft 24 kts 193°
2026-04-24 10:17 43.80471 11.19970 133 ft 20 kts 179°
2026-04-24 10:17 43.80330 11.19977 133 ft 15 kts 176°
2026-04-24 10:18 43.80317 11.20057 134 ft 8 kts 54°
2026-04-24 10:18 43.80328 11.20069 134 ft 0 kts 38°